Time,TemperatureF,DewpointF,PressureIn,WindDirection,WindDirectionDegrees,WindSpeedMPH,WindSpeedGustMPH,Humidity,HourlyPrecipIn,Conditions,Clouds,dailyrainin,SoftwareType,DateUTC
2013-02-09 00:29:00,29.6,27.6,30.18,SE,138,0.0,0.0,92,0.00,,---,0.00,VWS V14.01,2013-02-09 06:29:00,
2013-02-09 00:59:00,29.9,27.9,30.18,SE,143,0.0,0.0,92,0.00,,---,0.00,VWS V14.01,2013-02-09 06:59:00,
2013-02-09 01:29:00,29.9,27.9,30.17,ESE,103,0.0,0.0,92,0.00,,---,0.00,VWS V14.01,2013-02-09 07:29:00,
2013-02-09 01:59:00,29.7,27.9,30.16,SE,126,0.0,0.0,93,0.00,,---,0.00,VWS V14.01,2013-02-09 07:59:00,
2013-02-09 02:29:00,29.8,27.8,30.16,SSE,150,0.0,0.0,92,0.00,,---,0.00,VWS V14.01,2013-02-09 08:29:00,
2013-02-09 02:59:00,30.1,28.1,30.15,SSE,154,0.0,0.0,92,0.00,,---,0.00,VWS V14.01,2013-02-09 08:59:00,
2013-02-09 03:29:00,30.2,28.2,30.14,SE,135,0.0,0.0,92,0.00,,---,0.00,VWS V14.01,2013-02-09 09:29:00,
2013-02-09 03:59:00,30.3,28.3,30.12,SE,139,0.0,0.0,92,0.00,,---,0.00,VWS V14.01,2013-02-09 09:59:00,
2013-02-09 04:29:00,30.3,28.3,30.10,SSE,151,0.0,0.0,92,0.00,,---,0.00,VWS V14.01,2013-02-09 10:29:00,
2013-02-09 04:59:00,30.4,28.4,30.10,ESE,113,0.0,0.0,92,0.00,,---,0.00,VWS V14.01,2013-02-09 10:59:00,
2013-02-09 05:29:00,30.3,28.3,30.09,ESE,119,0.0,0.0,92,0.00,,---,0.00,VWS V14.01,2013-02-09 11:29:00,
2013-02-09 05:59:00,30.1,28.1,30.08,SE,136,0.0,0.0,92,0.00,,---,0.00,VWS V14.01,2013-02-09 11:59:00,
2013-02-09 06:29:00,30.1,28.1,30.07,SE,138,0.0,0.0,92,0.00,,---,0.00,VWS V14.01,2013-02-09 12:29:00,
2013-02-09 06:59:00,30.2,28.2,30.07,SE,131,0.0,0.0,92,0.00,,---,0.00,VWS V14.01,2013-02-09 12:59:00,
2013-02-09 07:29:00,30.2,28.2,30.07,SSE,147,0.0,0.0,92,0.00,,---,0.00,VWS V14.01,2013-02-09 13:29:00,
2013-02-09 07:59:00,30.3,28.3,30.07,SE,137,0.0,0.0,92,0.00,,---,0.00,VWS V14.01,2013-02-09 13:59:00,
2013-02-09 08:29:00,30.6,28.6,30.06,SE,142,0.0,0.0,92,0.00,,---,0.00,VWS V14.01,2013-02-09 14:29:00,
2013-02-09 08:59:00,31.4,29.1,30.05,SE,129,0.0,0.0,91,0.00,,---,0.00,VWS V14.01,2013-02-09 14:59:00,
2013-02-09 09:29:00,32.7,30.1,30.05,SSE,153,0.0,0.0,90,0.00,,---,0.00,VWS V14.01,2013-02-09 15:29:00,
2013-02-09 09:59:00,34.5,31.0,30.05,SE,138,0.0,0.0,87,0.00,,---,0.00,VWS V14.01,2013-02-09 15:59:00,
2013-02-09 10:29:00,36.4,32.0,30.03,South,172,0.0,0.0,84,0.00,,---,0.00,VWS V14.01,2013-02-09 16:29:00,
2013-02-09 10:59:00,38.4,33.1,30.02,SE,144,0.0,0.0,81,0.00,,---,0.00,VWS V14.01,2013-02-09 16:59:00,
2013-02-09 11:29:00,40.7,34.4,30.01,SSE,148,0.0,0.0,78,0.00,,---,0.00,VWS V14.01,2013-02-09 17:29:00,
2013-02-09 11:59:00,41.7,35.0,29.99,SSE,154,0.0,0.0,77,0.00,,---,0.00,VWS V14.01,2013-02-09 17:59:00,
2013-02-09 12:59:00,44.8,36.7,29.93,SSE,166,0.0,0.0,73,0.00,,---,0.00,VWS V14.01,2013-02-09 18:59:00,
2013-02-09 13:28:00,46.9,38.0,29.90,SE,129,0.0,0.0,71,0.00,,---,0.00,VWS V14.01,2013-02-09 19:28:00,
2013-02-09 13:59:00,47.2,37.9,29.88,ESE,122,0.0,0.0,70,0.00,,---,0.00,VWS V14.01,2013-02-09 19:59:00,
2013-02-09 14:28:00,47.2,37.9,29.86,SE,126,0.0,0.0,70,0.00,,---,0.00,VWS V14.01,2013-02-09 20:28:00,
2013-02-09 14:58:00,47.5,38.2,29.84,SE,131,0.0,0.0,70,0.00,,---,0.00,VWS V14.01,2013-02-09 20:58:00,
2013-02-09 15:29:00,48.1,38.4,29.83,ESE,119,0.0,0.0,69,0.00,,---,0.00,VWS V14.01,2013-02-09 21:29:00,
2013-02-09 15:58:00,47.8,38.5,29.80,ESE,103,0.0,0.0,70,0.00,,---,0.00,VWS V14.01,2013-02-09 21:58:00,
2013-02-09 16:28:00,46.4,37.9,29.81,ESE,108,0.0,0.0,72,0.00,,---,0.00,VWS V14.01,2013-02-09 22:28:00,
2013-02-09 16:59:00,45.7,37.2,29.80,ESE,103,0.0,0.0,72,0.00,,---,0.00,VWS V14.01,2013-02-09 22:59:00,
2013-02-09 17:28:00,43.9,36.5,29.79,ESE,105,0.0,0.0,75,0.00,,---,0.00,VWS V14.01,2013-02-09 23:28:00,
2013-02-09 17:59:00,44.3,36.9,29.78,East,100,0.0,0.0,75,0.00,,---,0.00,VWS V14.01,2013-02-09 23:59:00,
2013-02-09 18:28:00,43.8,36.4,29.79,East,97,0.0,0.0,75,0.00,,---,0.00,VWS V14.01,2013-02-10 00:28:00,
2013-02-09 18:59:00,42.2,35.2,29.78,East,101,0.0,0.0,76,0.00,,---,0.00,VWS V14.01,2013-02-10 00:59:00,
2013-02-09 19:29:00,41.5,34.8,29.77,ESE,111,0.0,0.0,77,0.00,,---,0.00,VWS V14.01,2013-02-10 01:29:00,
2013-02-09 19:59:00,40.9,34.6,29.77,East,98,0.0,0.0,78,0.00,,---,0.00,VWS V14.01,2013-02-10 01:59:00,
2013-02-09 20:29:00,39.9,34.5,29.75,East,95,0.0,0.0,81,0.00,,---,0.00,VWS V14.01,2013-02-10 02:29:00,
2013-02-09 20:59:00,39.3,34.6,29.74,ENE,76,0.0,0.0,83,0.00,,---,0.00,VWS V14.01,2013-02-10 02:59:00,
2013-02-09 21:29:00,39.3,34.6,29.73,East,84,0.0,0.0,83,0.00,,---,0.00,VWS V14.01,2013-02-10 03:29:00,
2013-02-09 21:59:00,39.0,34.3,29.71,East,98,0.0,0.0,83,0.00,,---,0.00,VWS V14.01,2013-02-10 03:59:00,
2013-02-09 22:29:00,39.0,34.3,29.69,East,94,0.0,0.0,83,0.00,,---,0.00,VWS V14.01,2013-02-10 04:29:00,
2013-02-09 22:59:00,39.1,34.1,29.68,ESE,105,0.0,0.0,82,0.00,,---,0.00,VWS V14.01,2013-02-10 04:59:00,
2013-02-09 23:29:00,39.4,34.1,29.71,SE,126,0.0,0.0,81,0.00,,---,0.00,VWS V14.01,2013-02-10 05:29:00,
2013-02-09 23:59:00,38.9,34.2,29.68,ESE,111,0.0,0.0,83,0.00,,---,0.00,VWS V14.01,2013-02-10 05:59:00,